Preview of NWS' New Version of Forecast
This preview is not operational and should not be used for support decisions.

Regional Weather Roundup (RWR)

Issued by National Weather Service (NWS)

                            
000
ASUS43 KLSX 221957
RWRMO 

WEATHER SUMMARY FOR MISSOURI
NATIONAL WEATHER SERVICE SPRINGFIELD MO
300 PM CDT MON JUL 22 2019

NOTE: "FAIR" INDICATES FEW OR NO CLOUDS BELOW 12,000 FEET WITH NO
       SIGNIFICANT WEATHER AND/OR OBSTRUCTIONS TO VISIBILITY.
       CURRENT SKY AND/OR WEATHER CONDITIONS ARE NOT AVAILABLE FOR
       CHILLICOTHE AND FARMINGTON.

MOZ001>031-035>038-043-044-053-054-222100-
...NORTHERN AND WESTERN MISSOURI...
  
CITY           SKY/WX    TMP DP  RH WIND       PRES   REMARKS
KANSAS CTY INT MOSUNNY   81  61  50 N17       30.16S                  
LEE'S SUMMIT   MOSUNNY   81  60  48 N16G23    30.15S                  
ST JOSEPH      MOSUNNY   80  59  48 N16G28    30.17F                  
CHILLICOTHE      N/A     83  61  47 VRB7G20   30.14S                  
     
$$
MOZ066>068-077>081-088>096-101>105-222100-
...SOUTHWEST MISSOURI...
  
CITY           SKY/WX    TMP DP  RH WIND       PRES   REMARKS
SPRINGFIELD    MOSUNNY   82  61  48 N20G26    30.08F                  
JOPLIN         SUNNY     81  63  54 N12G21    30.11S                  
BRANSON        PTSUNNY   81  64  57 N12G18    30.07F                  
               
$$
MOZ032>034-039>042-045>050-055>058-069>072-222100-
...CENTRAL MISSOURI...  
  
CITY           SKY/WX    TMP DP  RH WIND       PRES   REMARKS
COLUMBIA       NOT AVBL                                               
ROLLA          CLOUDY    77  62  59 N13       30.07F                  
SEDALIA        MOSUNNY   78  61  55 N14G24    30.12F                  
WARRENSBURG    MOSUNNY   79  61  53 N14G20    30.12F                  
               
$$
MOZ051-052-059>065-222100-
...EAST CENTRAL MISSOURI...
  
CITY           SKY/WX    TMP DP  RH WIND       PRES   REMARKS
ST LOUIS INTL  PTSUNNY   79  62  56 N12G17    30.04F                  
                   
$$
MOZ072>076-082>087-097>100-106>115-222100-
...SOUTH CENTRAL AND SOUTHEAST MISSOURI...
  
CITY           SKY/WX    TMP DP  RH WIND       PRES   REMARKS
CAPE GIRARDEAU CLOUDY    77  67  71 N16G26    29.98R                  
POPLAR BLUFF   CLOUDY    73  70  90 N14G24    29.99R                  
WEST PLAINS    MOSUNNY   79  64  60 N16G28    30.06S                  
                                       
$$